Regional Weather Roundup
Issued by NWS

Home | Current Version | Previous Version | Graphics & Text | Print | Product List | Glossary On
Versions: 1 2 3 4 5 6 7 8 9 10 11 12 13 14 15 16 17 18 19 20 21 22 23 24 25 26 27 28 29 30 31 32 33 34 35 36 37 38 39 40 41 42 43 44 45 46 47 48 49 50
000
ASUS43 KDMX 280608
RWRIA

WEATHER ROUNDUP FOR IOWA
NATIONAL WEATHER SERVICE DES MOINES IA
100 AM CDT WED SEP 28 2016

NOTE: "FAIR" INDICATES FEW OR NO CLOUDS BELOW 12,000 FEET WITH NO
SIGNIFICANT WEATHER AND/OR OBSTRUCTIONS TO VISIBILITY.

* - THESE STATIONS ARE NOT NWS STATIONS...THUS NOT UNDER NWS
QUALITY CONTROL.  THEY ALSO DO NOT REPORT WEATHER SUCH
AS PRECIPITATION OR FOG.

IAZ001>003-012>014-020>022-031>034-043>046-280700-
   NORTHWEST IOWA

CITY           SKY/WX    TMP DP  RH WIND       PRES   REMARKS
CARROLL *      CLOUDY    54  45  71 N6        29.90R
CHEROKEE *     CLEAR     48  40  72 NE5       29.94R
DENISON *      CLEAR     54  43  66 NE6       29.90R
LE MARS *      CLEAR     50  41  71 NE5       29.95R
ORANGE CITY *  CLEAR     52  39  62 NE7       29.95R
SHELDON *      CLEAR     48  41  76 N7        29.94R
SIOUX CITY     CLEAR     51  45  79 NW5       29.93R
6HR MIN TEMP:  51; 6HR MAX TEMP:  71;

SPENCER        CLEAR     49  43  80 NE10      29.94R
6HR MIN TEMP:  49; 6HR MAX TEMP:  66;

STORM LAKE *   CLEAR     52  41  66 N9        29.93R
$$

IAZ055>058-069>071-079>083-090>094-280700-
   SOUTHWEST IOWA

CITY           SKY/WX    TMP DP  RH WIND       PRES   REMARKS
ATLANTIC *     CLEAR     54  46  76 N7        29.89R
AUDUBON *      CLEAR     50  45  81 CALM      29.91R
CLARINDA *       N/A     50  50 100 MISG      29.89R
COUNCIL BLFS * CLEAR     57  48  72 N5        29.90R
CRESTON *      CLEAR     54  46  76 NW6       29.88S
HARLAN  *      CLEAR     54  46  76 N6        29.93R
LAMONI         CLEAR     59  47  64 NW9       29.85R
6HR MIN TEMP:  57; 6HR MAX TEMP:  68;

RED OAK *      CLEAR     59  48  67 NW7       29.89R
SHENANDOAH *   CLEAR     52  50  93 CALM      29.89R
$$

IAZ047>049-059>061-072>074-084-280700-
   CENTRAL IOWA

CITY           SKY/WX    TMP DP  RH WIND       PRES   REMARKS
AMES           CLOUDY    57  43  59 N7        29.87R
6HR MIN TEMP:  56; 6HR MAX TEMP:  70;

ANKENY *         N/A    N/A N/A N/A MISG        N/A
BOONE *        CLOUDY    55  41  58 N8        29.87R
CHARITON *       N/A     57  48  72 N7        29.84R
DES MOINES     PTCLDY    61  40  45 N8        29.86R
6HR MIN TEMP:  61; 6HR MAX TEMP:  69;

GRINNELL*      CLOUDY    58  38  48 N6        29.85R
KNOXVILLE *    CLOUDY    61  43  51 N9        29.83R
MARSHALLTOWN   CLOUDY    55  44  66 N13       29.85R
6HR MIN TEMP:  55; 6HR MAX TEMP:  65;

NEWTON *       CLOUDY    57  41  54 N6        29.84S
PELLA *        CLOUDY    59  42  53 N5        29.85R
PERRY *        MOCLDY    55  41  60 NW5       29.88R
$$

IAZ004>006-015-016-023>025-035-036-280700-
   NORTH CENTRAL IOWA

CITY           SKY/WX    TMP DP  RH WIND       PRES   REMARKS
ALGONA *       CLOUDY    52  45  76 N9G16     29.92R
CLARION *      CLOUDY    52  45  76 N10G17    29.90R
ESTHERVILLE    CLOUDY    50  45  83 N10       29.93S
6HR MIN TEMP:  50; 6HR MAX TEMP:  65;

FORT DODGE *   PTCLDY    52  39  62 N6        29.91R
MASON CITY     PTCLDY    48  43  82 N13       29.91R
6HR MIN TEMP:  48; 6HR MAX TEMP:  62;

FOREST CITY *  MOCLDY    48  43  81 N10       29.90R
WEBSTER CITY * CLOUDY    55  45  67 N8        29.87R
IOWA FALLS *   CLOUDY    54  44  69 N9G17     29.89R
$$

IAZ007>011-017>019-026>030-037>042-050>054-066-280700-
   NORTHEAST IOWA

CITY           SKY/WX    TMP DP  RH WIND       PRES   REMARKS
CEDAR RAPIDS   CLOUDY    56  45  66 N6        29.82S
6HR MIN TEMP:  56; 6HR MAX TEMP:  62;

CHARLES CITY * PTCLDY    48  45  87 NW7       29.87S
CLINTON *      CLOUDY    53  48  83 NE6       29.81R
DECORAH *      MOCLDY    48  46  93 N8        29.84R
DUBUQUE        CLOUDY    50  45  83 N9        29.82S
6HR MIN TEMP:  50; 6HR MAX TEMP:  61;

MONTICELLO *   CLOUDY    54  45  71 N9G15     29.82R
OELWEIN *      CLEAR     48  45  87 NW7       29.85S
WATERLOO       CLOUDY    52  43  71 N10       29.86R
6HR MIN TEMP:  52; 6HR MAX TEMP:  64;

$$

IAZ064-065-067-068-078-280700-
   EAST CENTRAL IOWA

CITY           SKY/WX    TMP DP  RH WIND       PRES   REMARKS
DAVENPORT      CLOUDY    54  46  74 NE12      29.82R
6HR MIN TEMP:  54; 6HR MAX TEMP:  65;

IOWA CITY      CLOUDY    58  41  53 NE10      29.83R
6HR MIN TEMP:  58; 6HR MAX TEMP:  64;

MT. PLEASANT * CLOUDY    62  46  56 N9        29.80R
MUSCATINE *    CLOUDY    59  43  55 N7        29.81R
QUAD CITIES    CLOUDY    60  41  49 NE8       29.78R
6HR MIN TEMP:  58; 6HR MAX TEMP:  64;

$$

IAZ062-063-075>077-085>089-095>099-280700-
   SOUTHEAST IOWA

CITY           SKY/WX    TMP DP  RH WIND       PRES   REMARKS
BURLINGTON     CLOUDY    61  47  59 N8        29.78R
6HR MIN TEMP:  57; 6HR MAX TEMP:  67;

FAIRFIELD *    CLOUDY    59  43  55 N8        29.81R
FORT MADISON * CLOUDY    61  46  59 NW5       29.79R
KEOKUK *       MOCLDY    61  48  63 NW7       29.78R
OSKALOOSA *    MOCLDY    58  43  57 N8        29.83R
OTTUMWA        CLOUDY   N/A N/A N/A N8        29.82R
WASHINGTON *     N/A    N/A N/A N/A MISG        N/A
$$

ABBREVIATIONS USED IN REMARKS
   TC - TEMPERATURES IN CELSIUS
  WCI - WIND CHILL INDEX
   HX - HEAT INDEX
  VSB - VISIBILITY
$$





USA.gov is the U.S. government's official web portal to all federal, state and local government web resources and services.